Find OneWeb SL0688

NORAD ID: 61596 Int'l Des: 2024-188 Owner: ONEWEBE Country: UK Constellation: oneweb operational
LEOCIRCULARPOLARONEWEB_TYPE

Live Position

Loading 3D Globe...

About OneWeb SL0688

Description loading...

Upcoming Passes

Passes for default location (London). Set your location on the main map for personalized predictions.

Altitude History

Loading altitude history...

Two-Line Element Set

1 61596U 24188C 26124.14056322 -.00000026 00000-0 -10049-3 0 9995
2 61596 87.9160 14.6329 0002561 107.4908 252.6503 13.17648738 80096
Epoch: May 4, 2026 • Age: 11 hours

Current Status

Altitude 1223.4 km
Velocity 7.24 km/s
Sub-Earth Point -76.96°S, 65.68°W
Launch Date Oct 20, 2024
Age 1.5 years
Type internet

Technical Details

Classification Payload
Mass 148.00 kg
Dry Mass 140.00 kg
Total Mass 148.00 kg
Length 1.30 m
Diameter 1.00 m
Span 5.00 m
Shape Trapezoid+2 pan
Manufacturer ONEWUS
Bus Type ARROW
Phase Status In Orbit
Owner/State ONEWEBE/UK

Most Searched